Roatan, Honduras

11:25 AM CST on February 19, 2017 (GMT -0600)
Roatan

Weather History for 78703 - November, 2012

Change the Weather History Date:

Friday, November 23, 2012

  Actual Average Record
Temperature  
Mean Temperature 75 °F -  
Max Temperature 82 °F 81 °F - ()
Min Temperature 68 °F 72 °F - ()
Cooling Degree Days 10    
Growing Degree Days 25 (Base 50)    
Moisture  
Dew Point 60 °F    
Average Humidity 52    
Maximum Humidity 69    
Minimum Humidity 33    
Precipitation  
Precipitation 0.00 in - - ()
Sea Level Pressure  
Sea Level Pressure 30.06 in    
Wind  
Wind Speed 7 mph ()    
Max Wind Speed 12 mph    
Max Gust Speed -    
Visibility 7.7 miles    
Events      
T = Trace of Precipitation, MM = Missing Value Source: Averaged Metar Reports

Daily Weather History Graph

Daily Weather History Graph

Search for Another Location

Airport or City:

Trip Planner

Search our weather history database for the weather conditions in past years. The results will help you decide how hot, cold, wet, or windy it might be!

Date:

Astronomy

Nov. 23, 2012 Rise Set
Actual Time 5:54 AM CST 5:11 PM CST
Civil Twilight 5:31 AM CST 5:34 PM CST
Nautical Twilight 5:04 AM CST 6:00 PM CST
Astronomical Twilight 4:38 AM CST 6:26 PM CST
Moon 1:55 PM CST (11/23) 1:47 AM CST (11/23)
Length of Visible Light 12h 03m
Length of Day
11h 17m
Waxing Gibbous, 80% of the Moon is Illuminated
Nov 23
Waxing Gibbous
Nov 28
Full
Dec 6
Last Quarter
Dec 13
New
Dec 19
First Quarter

Hourly Weather History & Observations

Time (CST) Temp. Heat Index Dew Point Humidity Pressure Visibility Wind Dir Wind Speed Gust Speed Precip Events Conditions
6:00 AM 74 °F - 63 °F 60% 30.05 in 14 mi NNE 6.9 mph - -   Haze
6:00 AM 73.4 °F - 62.6 °F 69% 30.04 in 6.2 mi NNE 6.9 mph - N/A   Scattered Clouds
7:00 AM 75.2 °F - 62.6 °F 65% 30.06 in 6.2 mi NNE 5.8 mph - N/A   Scattered Clouds
8:00 AM 78.8 °F - 62.6 °F 57% 30.06 in 6.2 mi NE 8.1 mph - N/A   Scattered Clouds
9:00 AM 80 °F - 60 °F 41% 30.10 in 12 mi NNE 9.2 mph - -   Haze
9:00 AM 80.6 °F 81.5 °F 60.8 °F 51% 30.09 in 6.2 mi NNE 9.2 mph - N/A   Scattered Clouds
10:00 AM 80.6 °F 81.1 °F 59.0 °F 48% 30.09 in 6.2 mi NE 10.4 mph - N/A   Scattered Clouds
11:00 AM 82.4 °F 82.5 °F 59.0 °F 45% 30.09 in 6.2 mi NNE 9.2 mph - N/A   Scattered Clouds
12:00 PM 82 °F - 57 °F 33% 30.07 in 12 mi East 4.6 mph - -   Haze
12:00 PM 82.4 °F 82.0 °F 57.2 °F 42% 30.06 in 6.2 mi East 4.6 mph - N/A   Scattered Clouds
1:00 PM 82.4 °F 82.5 °F 59.0 °F 45% 30.04 in 6.2 mi NE 10.4 mph - N/A   Scattered Clouds
2:00 PM 82.4 °F 82.5 °F 59.0 °F 45% 30.04 in 6.2 mi ENE 11.5 mph - N/A   Scattered Clouds
3:00 PM 82 °F - 62 °F 40% 30.03 in 12 mi ENE 6.9 mph - -   Haze
3:00 PM 82.4 °F 82.9 °F 60.8 °F 48% 30.04 in 6.2 mi ENE 6.9 mph - N/A   Mostly Cloudy
4:00 PM 78.8 °F - 62.6 °F 57% 30.01 in 6.2 mi NE 9.2 mph - N/A   Mostly Cloudy
5:00 PM 77.0 °F - 60.8 °F 57% 30.04 in 6.2 mi NE 6.9 mph - N/A   Mostly Cloudy
6:00 PM 75 °F - 60 °F 51% 30.06 in 11 mi NNE 5.8 mph - -   Haze
6:00 PM 75.2 °F - 60.8 °F 61% 30.04 in 6.2 mi NNE 5.8 mph - N/A   Scattered Clouds
7:00 PM 75.2 °F - 59.0 °F 57% 30.06 in 6.2 mi NNE 6.9 mph - N/A   Scattered Clouds
8:00 PM 73.4 °F - 59.0 °F 61% 30.06 in 6.2 mi NNE 8.1 mph - N/A   Partly Cloudy